| time (UTC) | temp F | wind direction | speed knots | gust knots | rain 1hr in | rain 24hr in | rain mn in | humidity % | barometer mb |
| 20260507152748 | 61 | 293 | 5.2 | 17.4 | 0.00 | 0.09 | 0.09 | 65 | 1009.0 |
| 20260507150156 | 62 | 248 | 8.7 | 20.0 | 0.00 | 0.09 | 0.09 | 64 | 1004.9 |
| 20260507145645 | 62 | 248 | 4.3 | 20.0 | 0.01 | 0.09 | 0.09 | 65 | 1004.5 |
| 20260507145136 | 62 | 248 | 7.0 | 20.0 | 0.01 | 0.09 | 0.09 | 66 | 1004.0 |
| 20260507144116 | 62 | 225 | 13.0 | 26.1 | 0.01 | 0.09 | 0.09 | 67 | 1003.3 |
| 20260507143605 | 62 | 203 | 14.8 | 26.1 | 0.01 | 0.09 | 0.09 | 67 | 1003.8 |
| 20260507143057 | 61 | 225 | 10.4 | 21.7 | 0.01 | 0.09 | 0.09 | 71 | 1003.5 |
| 20260507142035 | 60 | 203 | 13.0 | 20.9 | 0.01 | 0.09 | 0.09 | 76 | 1003.7 |
| 20260507141524 | 60 | 270 | 7.0 | 20.9 | 0.01 | 0.09 | 0.09 | 79 | 1004.1 |
| 20260507140505 | 60 | 225 | 13.0 | 21.7 | 0.01 | 0.09 | 0.09 | 76 | 1004.8 |
| 20260507135955 | 61 | 225 | 11.3 | 23.5 | 0.00 | 0.08 | 0.08 | 71 | 1005.2 |
| 20260507135444 | 62 | 225 | 11.3 | 23.5 | 0.00 | 0.08 | 0.08 | 63 | 1005.2 |
| 20260507134935 | 62 | 270 | 12.2 | 21.7 | 0.00 | 0.08 | 0.08 | 63 | 1006.8 |
| 20260507134424 | 62 | 225 | 9.6 | 26.9 | 0.00 | 0.08 | 0.08 | 63 | 1005.7 |
| 20260507133914 | 62 | 203 | 13.0 | 26.9 | 0.00 | 0.08 | 0.08 | 64 | 1003.8 |
| 20260507133405 | 62 | 225 | 9.6 | 23.5 | 0.00 | 0.08 | 0.08 | 66 | 1002.9 |
| 20260507132345 | 63 | 248 | 10.4 | 20.0 | 0.00 | 0.08 | 0.08 | 66 | 1002.3 |
| 20260507131833 | 63 | 248 | 12.2 | 19.1 | 0.00 | 0.08 | 0.08 | 68 | 1002.0 |
| 20260507131322 | 64 | 203 | 7.0 | 19.1 | 0.00 | 0.08 | 0.08 | 69 | 1001.9 |
| 20260507130813 | 64 | 203 | 9.6 | 15.6 | 0.00 | 0.08 | 0.08 | 69 | 1002.2 |
| 20260507125752 | 64 | 270 | 7.0 | 20.9 | 0.00 | 0.08 | 0.08 | 69 | 1002.8 |
| 20260507125245 | 64 | 203 | 8.7 | 20.9 | 0.00 | 0.08 | 0.08 | 67 | 1002.5 |
| 20260507124222 | 65 | 180 | 7.0 | 20.0 | 0.00 | 0.08 | 0.08 | 67 | 1002.1 |
| 20260507122652 | 65 | 248 | 6.1 | 15.6 | 0.00 | 0.08 | 0.08 | 74 | 1001.7 |
| 20260507122143 | 65 | 248 | 10.4 | 15.6 | 0.00 | 0.08 | 0.08 | 76 | 1002.0 |
| 20260507121634 | 65 | 180 | 7.0 | 15.6 | 0.00 | 0.08 | 0.08 | 78 | 1001.6 |
| 20260507121121 | 65 | 180 | 7.0 | 15.6 | 0.00 | 0.08 | 0.08 | 80 | 1001.6 |
| 20260507120611 | 65 | 180 | 6.1 | 19.1 | 0.00 | 0.08 | 0.08 | 82 | 1001.5 |
| 20260507120104 | 65 | 203 | 7.0 | 20.9 | 0.00 | 0.08 | 0.08 | 84 | 1001.3 |
| 20260507115554 | 65 | 225 | 7.0 | 20.9 | 0.00 | 0.08 | 0.08 | 84 | 1001.1 |
| 20260507115043 | 66 | 248 | 3.5 | 20.9 | 0.00 | 0.08 | 0.08 | 85 | 1001.2 |
| 20260507114532 | 66 | 180 | 12.2 | 20.9 | 0.00 | 0.08 | 0.08 | 85 | 1000.8 |
| 20260507114021 | 66 | 203 | 7.0 | 19.1 | 0.00 | 0.08 | 0.08 | 85 | 1001.1 |
| 20260507113000 | 66 | 180 | 7.0 | 18.2 | 0.00 | 0.08 | 0.08 | 86 | 1000.7 |
| 20260507112452 | 66 | 180 | 7.0 | 18.2 | 0.00 | 0.08 | 0.08 | 86 | 1000.4 |
| 20260507111942 | 66 | 180 | 6.1 | 17.4 | 0.00 | 0.08 | 0.08 | 86 | 1000.6 |
| 20260507111429 | 66 | 180 | 11.3 | 17.4 | 0.00 | 0.08 | 0.08 | 86 | 1000.5 |
| 20260507110921 | 66 | 180 | 8.7 | 14.8 | 0.00 | 0.08 | 0.08 | 86 | 1000.7 |
| 20260507110409 | 67 | 180 | 7.0 | 18.2 | 0.00 | 0.08 | 0.08 | 87 | 1000.4 |
| 20260507105859 | 67 | 180 | 7.8 | 18.2 | 0.00 | 0.08 | 0.08 | 86 | 1000.3 |
| 20260507104839 | 67 | 180 | 6.1 | 13.9 | 0.00 | 0.08 | 0.08 | 88 | 999.8 |
| 20260507104330 | 67 | 180 | 7.0 | 13.9 | 0.00 | 0.08 | 0.08 | 88 | 999.9 |
| 20260507103819 | 67 | 180 | 9.6 | 13.0 | 0.00 | 0.08 | 0.08 | 88 | 999.7 |
| 20260507102803 | 67 | 180 | 7.8 | 14.8 | 0.00 | 0.08 | 0.08 | 87 | 999.5 |
| 20260507101739 | 67 | 180 | 7.8 | 19.1 | 0.00 | 0.08 | 0.08 | 87 | 998.9 |
| 20260507101229 | 67 | 180 | 12.2 | 18.2 | 0.00 | 0.08 | 0.08 | 87 | 999.0 |
| 20260507100719 | 67 | 180 | 6.1 | 17.4 | 0.00 | 0.08 | 0.08 | 88 | 998.8 |
| 20260507100208 | 67 | 180 | 7.8 | 15.6 | 0.00 | 0.08 | 0.08 | 88 | 998.6 |
| 20260507095657 | 67 | 180 | 5.2 | 15.6 | 0.00 | 0.08 | 0.08 | 88 | 998.4 |
| 20260507095147 | 67 | 180 | 7.0 | 14.8 | 0.00 | 0.08 | 0.08 | 88 | 998.4 |
| 20260507094644 | 67 | 180 | 5.2 | 13.9 | 0.00 | 0.08 | 0.08 | 89 | 998.3 |
| 20260507094129 | 67 | 180 | 7.0 | 14.8 | 0.00 | 0.08 | 0.08 | 89 | 998.2 |
| 20260507093617 | 67 | 180 | 6.1 | 14.8 | 0.00 | 0.08 | 0.08 | 89 | 997.9 |
| 20260507093109 | 68 | 180 | 9.6 | 18.2 | 0.00 | 0.08 | 0.08 | 90 | 997.8 |
| 20260507092558 | 68 | 180 | 9.6 | 20.9 | 0.00 | 0.08 | 0.08 | 90 | 997.4 |
| 20260507092048 | 68 | 180 | 8.7 | 20.9 | 0.00 | 0.08 | 0.08 | 90 | 997.3 |
| 20260507091536 | 68 | 180 | 9.6 | 15.6 | 0.00 | 0.08 | 0.08 | 90 | 997.2 |
| 20260507090516 | 68 | 180 | 6.1 | 12.2 | 0.00 | 0.08 | 0.08 | 91 | 997.4 |
| 20260507090006 | 67 | 180 | 7.0 | 12.2 | 0.00 | 0.08 | 0.08 | 91 | 997.5 |
| 20260507085456 | 67 | 180 | 7.0 | 12.2 | 0.00 | 0.08 | 0.08 | 91 | 997.7 |
| 20260507084947 | 67 | 180 | 6.1 | 12.2 | 0.00 | 0.08 | 0.08 | 92 | 998.1 |
| 20260507084437 | 67 | 180 | 5.2 | 12.2 | 0.00 | 0.08 | 0.08 | 92 | 998.1 |
| 20260507083925 | 67 | 180 | 4.3 | 12.2 | 0.00 | 0.08 | 0.08 | 92 | 998.2 |
| 20260507083415 | 67 | 180 | 3.5 | 12.2 | 0.00 | 0.08 | 0.08 | 92 | 997.7 |
| 20260507082905 | 67 | 180 | 3.5 | 13.9 | 0.01 | 0.08 | 0.08 | 91 | 997.7 |
| 20260507082355 | 67 | 180 | 7.0 | 15.6 | 0.02 | 0.08 | 0.08 | 91 | 998.1 |
| 20260507081844 | 67 | 180 | 9.6 | 15.6 | 0.08 | 0.08 | 0.08 | 91 | 998.2 |
| 20260507081334 | 67 | 180 | 7.0 | 11.3 | 0.08 | 0.08 | 0.08 | 91 | 997.9 |
| 20260507080826 | 67 | 180 | 6.1 | 11.3 | 0.08 | 0.08 | 0.08 | 91 | 997.9 |
| 20260507080314 | 67 | 180 | 4.3 | 11.3 | 0.08 | 0.08 | 0.08 | 92 | 997.9 |
| 20260507075804 | 68 | 180 | 6.1 | 9.6 | 0.08 | 0.08 | 0.08 | 91 | 998.2 |
| 20260507074744 | 68 | 180 | 3.5 | 7.8 | 0.08 | 0.08 | 0.08 | 91 | 998.1 |
| 20260507074233 | 68 | 180 | 3.5 | 7.0 | 0.08 | 0.08 | 0.08 | 90 | 998.3 |
| 20260507073724 | 69 | 180 | 2.6 | 7.8 | 0.08 | 0.08 | 0.08 | 90 | 998.9 |
| 20260507073213 | 69 | 180 | 3.5 | 9.6 | 0.08 | 0.08 | 0.08 | 89 | 998.6 |
| 20260507072704 | 69 | 180 | 5.2 | 9.6 | 0.07 | 0.07 | 0.07 | 87 | 998.7 |
| 20260507071642 | 72 | 158 | 6.1 | 9.6 | 0.00 | 0.00 | 0.00 | 81 | 998.8 |
| 20260507071133 | 73 | 158 | 3.5 | 7.8 | 0.00 | 0.00 | 0.00 | 82 | 998.5 |
| 20260507070623 | 73 | 203 | 2.6 | 9.6 | 0.00 | 0.00 | 0.00 | 83 | 998.7 |
| 20260507070113 | 73 | 203 | 4.3 | 9.6 | 0.00 | 0.00 | 0.00 | 86 | 998.7 |
| 20260507065602 | 74 | 203 | 2.6 | 6.1 | 0.00 | 0.00 | 0.00 | 90 | 998.1 |
| 20260507065053 | 74 | 203 | 2.6 | 5.2 | 0.00 | 0.00 | 0.00 | 91 | 998.2 |
| 20260507064034 | 74 | 180 | 1.7 | 7.8 | 0.00 | 0.00 | 0.00 | 92 | 998.2 |
| 20260507063522 | 73 | 158 | 2.6 | 3.5 | 0.00 | 0.00 | 0.00 | 92 | 998.1 |
| 20260507063011 | 73 | 113 | 0.9 | 3.5 | 0.00 | 0.00 | 0.00 | 92 | 997.8 |
| 20260507062502 | 73 | 90 | 1.7 | 3.5 | 0.00 | 0.00 | 0.00 | 92 | 997.6 |
| 20260507061953 | 73 | 90 | 1.7 | 3.5 | 0.00 | 0.00 | 0.00 | 91 | 997.6 |
| 20260507061442 | 73 | 90 | 0.9 | 3.5 | 0.00 | 0.00 | 0.00 | 91 | 997.7 |
| 20260507060427 | 74 | 68 | 0.9 | 0.0 | 0.00 | 0.00 | 0.00 | 90 | 997.9 |
| 20260507060203 | 72 | 68 | 0.9 | 0.0 | 0.00 | 0.00 | 0.00 | 97 | 997.9 |
| 20260507055105 | 74 | 270 | 0.9 | 1.7 | 0.00 | 0.00 | 0.00 | 90 | 997.9 |
| 20260507054556 | 74 | 270 | 0.9 | 1.7 | 0.00 | 0.00 | 0.00 | 90 | 997.8 |
| 20260507054045 | 74 | 270 | 0.9 | 1.7 | 0.00 | 0.00 | 0.00 | 89 | 998.0 |
| 20260507053537 | 74 | 270 | 1.7 | 3.5 | 0.00 | 0.00 | 0.00 | 89 | 998.2 |
| 20260507053026 | 74 | 45 | 1.7 | 3.5 | 0.00 | 0.00 | 0.00 | 89 | 998.3 |
| 20260507052518 | 74 | 293 | 0.9 | 3.5 | 0.00 | 0.00 | 0.00 | 89 | 998.4 |
| 20260507050944 | 75 | 68 | 1.7 | 3.5 | 0.00 | 0.00 | 0.00 | 88 | 998.3 |
| 20260507050434 | 75 | 68 | 0.9 | 3.5 | 0.00 | 0.00 | 0.00 | 88 | 998.2 |
| 20260507045413 | 75 | 68 | 1.7 | 3.5 | 0.00 | 0.00 | 0.00 | 88 | 998.1 |
| 20260507044353 | 75 | 68 | 1.7 | 3.5 | 0.00 | 0.00 | 0.00 | 87 | 998.3 |
| 20260507043847 | 76 | 68 | 1.7 | 3.5 | 0.00 | 0.00 | 0.00 | 87 | 998.3 |
| 20260507043333 | 76 | 68 | 1.7 | 3.5 | 0.00 | 0.00 | 0.00 | 86 | 998.4 |
| 20260507042825 | 76 | 68 | 2.6 | 6.1 | 0.00 | 0.00 | 0.00 | 86 | 998.5 |
| 20260507042313 | 76 | 68 | 1.7 | 6.1 | 0.00 | 0.00 | 0.00 | 86 | 998.5 |
| 20260507041802 | 76 | 68 | 1.7 | 5.2 | 0.00 | 0.00 | 0.00 | 86 | 998.2 |
| 20260507041252 | 76 | 68 | 1.7 | 5.2 | 0.00 | 0.00 | 0.00 | 86 | 998.6 |
| 20260507040751 | 76 | 68 | 1.7 | 7.0 | 0.00 | 0.00 | 0.00 | 85 | 998.6 |
| 20260507040233 | 76 | 68 | 3.5 | 7.0 | 0.00 | 0.00 | 0.00 | 85 | 998.6 |
| 20260507035722 | 76 | 68 | 3.5 | 6.1 | 0.00 | 0.00 | 0.00 | 85 | 998.5 |
| 20260507035212 | 76 | 68 | 1.7 | 6.1 | 0.00 | 0.00 | 0.00 | 84 | 998.6 |
| 20260507034706 | 77 | 68 | 1.7 | 6.1 | 0.00 | 0.00 | 0.00 | 83 | 998.5 |
| 20260507034153 | 77 | 0 | 3.5 | 6.1 | 0.00 | 0.00 | 0.00 | 83 | 998.7 |
| 20260507033642 | 77 | 45 | 2.6 | 6.1 | 0.00 | 0.00 | 0.00 | 84 | 998.7 |
| 20260507033133 | 77 | 68 | 1.7 | 6.1 | 0.00 | 0.00 | 0.00 | 84 | 998.8 |
| 20260507032623 | 76 | 0 | 2.6 | 6.1 | 0.00 | 0.00 | 0.00 | 85 | 998.9 |
| 20260507032113 | 76 | 45 | 2.6 | 5.2 | 0.00 | 0.00 | 0.00 | 84 | 998.8 |
| 20260507031051 | 77 | 45 | 1.7 | 3.5 | 0.00 | 0.00 | 0.00 | 84 | 999.0 |
| 20260507030541 | 77 | 0 | 0.9 | 3.5 | 0.00 | 0.00 | 0.00 | 84 | 999.1 |
| 20260507030031 | 77 | 45 | 0.9 | 3.5 | 0.00 | 0.00 | 0.00 | 84 | 999.1 |
| 20260507024502 | 77 | 45 | 0.9 | 3.5 | 0.00 | 0.00 | 0.00 | 83 | 999.2 |
| 20260507023441 | 77 | 23 | 0.9 | 3.5 | 0.00 | 0.00 | 0.00 | 83 | 999.2 |
| 20260507022931 | 77 | 23 | 1.7 | 3.5 | 0.00 | 0.00 | 0.00 | 82 | 999.2 |
| 20260507021909 | 77 | 23 | 0.9 | 1.7 | 0.00 | 0.00 | 0.00 | 82 | 999.5 |
| 20260507021359 | 78 | 23 | 1.7 | 1.7 | 0.00 | 0.00 | 0.00 | 82 | 999.2 |
| 20260507020849 | 78 | 23 | 0.0 | 1.7 | 0.00 | 0.00 | 0.00 | 81 | 999.5 |
| 20260507020340 | 78 | 23 | 0.0 | 3.5 | 0.00 | 0.00 | 0.00 | 81 | 999.3 |
| 20260507015319 | 77 | 45 | 0.9 | 5.2 | 0.00 | 0.00 | 0.00 | 81 | 999.2 |
| 20260507014810 | 77 | 45 | 1.7 | 5.2 | 0.00 | 0.00 | 0.00 | 81 | 999.3 |
| 20260507014302 | 77 | 45 | 0.9 | 5.2 | 0.00 | 0.00 | 0.00 | 82 | 998.9 |
| 20260507013750 | 77 | 45 | 0.9 | 7.8 | 0.00 | 0.00 | 0.00 | 82 | 998.9 |
| 20260507013238 | 77 | 45 | 2.6 | 7.8 | 0.00 | 0.00 | 0.00 | 82 | 998.6 |
| 20260507012727 | 77 | 45 | 2.6 | 7.8 | 0.00 | 0.00 | 0.00 | 81 | 998.5 |
| 20260507012218 | 77 | 45 | 3.5 | 7.8 | 0.00 | 0.00 | 0.00 | 81 | 998.4 |
| 20260507011709 | 78 | 45 | 2.6 | 9.6 | 0.00 | 0.00 | 0.00 | 81 | 998.3 |
| 20260507011157 | 78 | 23 | 3.5 | 9.6 | 0.00 | 0.00 | 0.00 | 80 | 998.6 |
| 20260507010139 | 78 | 45 | 2.6 | 6.1 | 0.00 | 0.00 | 0.00 | 80 | 998.6 |
| 20260507005627 | 78 | 45 | 2.6 | 7.0 | 0.00 | 0.00 | 0.00 | 79 | 998.6 |
| 20260507005117 | 78 | 45 | 2.6 | 9.6 | 0.00 | 0.00 | 0.00 | 79 | 998.7 |
| 20260507004607 | 78 | 45 | 1.7 | 9.6 | 0.00 | 0.00 | 0.00 | 79 | 998.8 |
| 20260507004058 | 78 | 0 | 2.6 | 9.6 | 0.00 | 0.00 | 0.00 | 79 | 998.6 |
| 20260507003037 | 78 | 45 | 4.3 | 9.6 | 0.00 | 0.00 | 0.00 | 79 | 998.5 |
| 20260507002534 | 78 | 45 | 2.6 | 7.8 | 0.00 | 0.00 | 0.00 | 79 | 998.7 |
| 20260507002017 | 78 | 45 | 2.6 | 7.8 | 0.00 | 0.00 | 0.00 | 79 | 998.6 |
| 20260507001506 | 79 | 45 | 2.6 | 9.6 | 0.00 | 0.00 | 0.00 | 79 | 998.6 |
| 20260507000956 | 78 | 45 | 3.5 | 9.6 | 0.00 | 0.00 | 0.00 | 79 | 998.7 |
| 20260507000447 | 79 | 45 | 4.3 | 7.0 | 0.00 | 0.00 | 0.00 | 78 | 999.0 |
| 20260506235935 | 79 | 45 | 2.6 | 7.0 | 0.00 | 0.00 | 0.00 | 77 | 999.1 |
| 20260506235425 | 80 | 45 | 2.6 | 7.0 | 0.00 | 0.00 | 0.00 | 76 | 999.1 |
| 20260506234405 | 80 | 45 | 3.5 | 7.8 | 0.00 | 0.00 | 0.00 | 75 | 998.9 |
| 20260506233856 | 81 | 45 | 3.5 | 7.8 | 0.00 | 0.00 | 0.00 | 75 | 999.0 |
| 20260506232325 | 81 | 23 | 4.3 | 13.9 | 0.00 | 0.00 | 0.00 | 73 | 998.8 |
| 20260506231814 | 81 | 23 | 3.5 | 9.6 | 0.00 | 0.00 | 0.00 | 73 | 998.7 |
| 20260506231305 | 82 | 23 | 4.3 | 9.6 | 0.00 | 0.00 | 0.00 | 72 | 998.5 |
| 20260506230755 | 82 | 0 | 3.5 | 9.6 | 0.00 | 0.00 | 0.00 | 71 | 998.6 |
| 20260506230245 | 82 | 23 | 6.1 | 13.0 | 0.00 | 0.00 | 0.00 | 70 | 998.5 |
| 20260506225225 | 82 | 23 | 4.3 | 13.0 | 0.00 | 0.00 | 0.00 | 71 | 998.7 |
| 20260506224205 | 82 | 0 | 5.2 | 12.2 | 0.00 | 0.00 | 0.00 | 72 | 998.8 |
| 20260506223654 | 82 | 0 | 3.5 | 12.2 | 0.00 | 0.00 | 0.00 | 72 | 998.9 |
| 20260506222635 | 82 | 23 | 3.5 | 9.6 | 0.00 | 0.00 | 0.00 | 73 | 998.9 |
| 20260506222122 | 82 | 23 | 3.5 | 9.6 | 0.00 | 0.00 | 0.00 | 73 | 999.0 |
| 20260506221613 | 82 | 45 | 3.5 | 12.2 | 0.00 | 0.00 | 0.00 | 72 | 999.2 |
| 20260506221104 | 83 | 23 | 4.3 | 12.2 | 0.00 | 0.00 | 0.00 | 72 | 999.0 |
| 20260506220552 | 83 | 45 | 2.6 | 9.6 | 0.00 | 0.00 | 0.00 | 72 | 999.0 |
| 20260506220042 | 83 | 45 | 3.5 | 7.8 | 0.00 | 0.00 | 0.00 | 72 | 999.1 |
| 20260506215534 | 83 | 45 | 3.5 | 9.6 | 0.00 | 0.00 | 0.00 | 72 | 999.1 |
| 20260506214514 | 83 | 23 | 3.5 | 7.8 | 0.00 | 0.00 | 0.00 | 71 | 999.3 |
| 20260506214002 | 84 | 23 | 1.7 | 7.8 | 0.00 | 0.00 | 0.00 | 71 | 999.5 |
| 20260506213453 | 84 | 23 | 2.6 | 6.1 | 0.00 | 0.00 | 0.00 | 71 | 999.3 |
| 20260506212941 | 84 | 45 | 3.5 | 6.1 | 0.00 | 0.00 | 0.00 | 71 | 999.3 |
| 20260506211411 | 84 | 23 | 1.7 | 7.0 | 0.00 | 0.00 | 0.00 | 69 | 999.0 |
| 20260506210901 | 85 | 23 | 4.3 | 7.8 | 0.00 | 0.00 | 0.00 | 68 | 999.0 |
| 20260506210352 | 85 | 23 | 3.5 | 7.8 | 0.00 | 0.00 | 0.00 | 68 | 999.0 |
| 20260506205841 | 85 | 23 | 3.5 | 9.6 | 0.00 | 0.00 | 0.00 | 67 | 999.0 |
| 20260506205331 | 86 | 45 | 3.5 | 9.6 | 0.00 | 0.00 | 0.00 | 67 | 998.9 |
| 20260506204822 | 86 | 23 | 3.5 | 11.3 | 0.00 | 0.00 | 0.00 | 66 | 999.0 |
| 20260506203759 | 86 | 23 | 4.3 | 12.2 | 0.00 | 0.00 | 0.00 | 65 | 999.2 |
| 20260506203249 | 87 | 0 | 5.2 | 17.4 | 0.00 | 0.00 | 0.00 | 65 | 999.4 |
| 20260506202739 | 87 | 0 | 3.5 | 17.4 | 0.00 | 0.00 | 0.00 | 64 | 999.2 |
| 20260506202230 | 87 | 0 | 6.1 | 13.0 | 0.00 | 0.00 | 0.00 | 64 | 999.2 |
| 20260506201721 | 87 | 45 | 4.3 | 9.6 | 0.00 | 0.00 | 0.00 | 64 | 999.2 |
| 20260506201209 | 88 | 45 | 1.7 | 12.2 | 0.00 | 0.00 | 0.00 | 64 | 999.5 |
| 20260506200149 | 88 | 0 | 4.3 | 9.6 | 0.00 | 0.00 | 0.00 | 63 | 999.4 |
| 20260506195639 | 88 | 23 | 6.1 | 13.0 | 0.00 | 0.00 | 0.00 | 63 | 999.6 |
| 20260506195129 | 88 | 23 | 7.0 | 13.0 | 0.00 | 0.00 | 0.00 | 64 | 999.6 |
| 20260506194108 | 88 | 23 | 4.3 | 14.8 | 0.00 | 0.00 | 0.00 | 63 | 999.7 |
| 20260506193558 | 88 | 23 | 6.1 | 13.9 | 0.00 | 0.00 | 0.00 | 63 | 999.4 |
| 20260506193049 | 88 | 338 | 6.1 | 13.0 | 0.00 | 0.00 | 0.00 | 63 | 999.5 |
| 20260506192539 | 88 | 23 | 6.1 | 13.9 | 0.00 | 0.00 | 0.00 | 63 | 999.6 |
| 20260506192027 | 88 | 23 | 4.3 | 13.9 | 0.00 | 0.00 | 0.00 | 63 | 999.6 |
| 20260506191518 | 88 | 45 | 5.2 | 14.8 | 0.00 | 0.00 | 0.00 | 63 | 999.5 |
| 20260506191009 | 88 | 0 | 7.0 | 14.8 | 0.00 | 0.00 | 0.00 | 63 | 999.7 |
| 20260506190458 | 87 | 45 | 3.5 | 13.0 | 0.00 | 0.00 | 0.00 | 64 | 999.8 |
| 20260506185947 | 88 | 45 | 3.5 | 14.8 | 0.00 | 0.00 | 0.00 | 63 | 999.9 |
| 20260506185439 | 88 | 0 | 4.3 | 15.6 | 0.00 | 0.00 | 0.00 | 63 | 1000.0 |
| 20260506184927 | 88 | 23 | 7.0 | 15.6 | 0.00 | 0.00 | 0.00 | 63 | 1000.2 |
| 20260506184417 | 88 | 23 | 7.0 | 15.6 | 0.00 | 0.00 | 0.00 | 63 | 1000.1 |
| 20260506183906 | 88 | 23 | 9.6 | 15.6 | 0.00 | 0.00 | 0.00 | 63 | 1000.1 |
| 20260506183357 | 88 | 0 | 7.8 | 13.0 | 0.00 | 0.00 | 0.00 | 62 | 1000.3 |
| 20260506182847 | 87 | 338 | 7.0 | 13.0 | 0.00 | 0.00 | 0.00 | 63 | 1000.2 |
| 20260506181827 | 87 | 23 | 3.5 | 13.0 | 0.00 | 0.00 | 0.00 | 63 | 1000.2 |
| 20260506181316 | 87 | 23 | 5.2 | 13.0 | 0.00 | 0.00 | 0.00 | 63 | 1000.1 |
| 20260506180807 | 87 | 45 | 7.0 | 13.0 | 0.00 | 0.00 | 0.00 | 64 | 1000.3 |
| 20260506175745 | 88 | 23 | 7.8 | 15.6 | 0.00 | 0.00 | 0.00 | 62 | 1000.4 |
| 20260506175236 | 87 | 0 | 5.2 | 15.6 | 0.00 | 0.00 | 0.00 | 64 | 1000.5 |
| 20260506174725 | 87 | 0 | 8.7 | 12.2 | 0.00 | 0.00 | 0.00 | 63 | 1000.5 |
| 20260506174201 | 87 | 45 | 5.2 | 12.2 | 0.00 | 0.00 | 0.00 | 64 | 1000.7 |
| 20260506173141 | 87 | 23 | 5.2 | 15.6 | 0.00 | 0.00 | 0.00 | 63 | 1000.9 |
| 20260506172631 | 88 | 23 | 5.2 | 13.9 | 0.00 | 0.00 | 0.00 | 62 | 1000.8 |
| 20260506172120 | 87 | 45 | 6.1 | 11.3 | 0.00 | 0.00 | 0.00 | 63 | 1001.2 |
| 20260506171610 | 89 | 68 | 4.3 | 13.0 | 0.00 | 0.00 | 0.00 | 61 | 1001.4 |
| 20260506171108 | 89 | 45 | 5.2 | 13.0 | 0.00 | 0.00 | 0.00 | 61 | 1001.4 |
| 20260506170550 | 88 | 45 | 6.1 | 13.9 | 0.00 | 0.00 | 0.00 | 62 | 1001.2 |
| 20260506170041 | 87 | 23 | 8.7 | 13.9 | 0.00 | 0.00 | 0.00 | 62 | 1001.4 |
| 20260506165530 | 88 | 23 | 3.5 | 13.9 | 0.00 | 0.00 | 0.00 | 62 | 1001.5 |
| 20260506165019 | 88 | 23 | 8.7 | 13.9 | 0.00 | 0.00 | 0.00 | 63 | 1001.5 |
| 20260506164509 | 88 | 0 | 4.3 | 13.9 | 0.00 | 0.00 | 0.00 | 63 | 1001.7 |
| 20260506163959 | 88 | 338 | 3.5 | 13.9 | 0.00 | 0.00 | 0.00 | 63 | 1001.6 |
| 20260506163449 | 87 | 338 | 7.0 | 13.0 | 0.00 | 0.00 | 0.00 | 64 | 1001.6 |
| 20260506162938 | 87 | 0 | 3.5 | 13.0 | 0.00 | 0.00 | 0.00 | 65 | 1001.8 |
| 20260506161923 | 87 | 23 | 3.5 | 12.2 | 0.00 | 0.00 | 0.00 | 66 | 1002.1 |
| 20260506161409 | 87 | 45 | 3.5 | 12.2 | 0.00 | 0.00 | 0.00 | 65 | 1002.0 |
| 20260506160858 | 87 | 23 | 4.3 | 14.8 | 0.00 | 0.00 | 0.00 | 66 | 1002.2 |
| 20260506155839 | 86 | 45 | 7.0 | 14.8 | 0.00 | 0.00 | 0.00 | 67 | 1002.2 |
| 20260506154818 | 86 | 45 | 3.5 | 12.2 | 0.00 | 0.00 | 0.00 | 67 | 1002.6 |